GFSSW_850_rhum_000.txt.gz
RH
33 33 32 31 30 28 25 24 24 25 28 17 16 15 20 22 21 18 18 15 11 10 13 15 15 8 8 5 5 6 7 6 6 7 6 6 6 9 10 9 11 12 18 44 57
35 35 35 34 31 26 25 23 23 26 24 15 17 19 21 24 25 17 16 15 11 10 16 11 9 7 6 6 6 7 8 8 6 6 7 6 6 8 8 9 11 16 21 34 48
40 38 36 32 28 27 24 23 25 26 22 14 17 20 19 21 26 19 14 12 12 13 18 16 12 8 8 8 8 8 9 7 8 11 8 8 7 9 8 9 12 12 19 26 32
37 35 31 29 26 24 25 27 25 26 24 15 17 17 22 26 21 17 19 14 11 13 15 14 10 10 10 10 10 11 10 10 12 12 11 12 13 11 10 10 14 15 17 23 28
34 32 30 27 26 28 28 26 25 25 24 16 16 21 25 25 21 22 23 21 18 17 14 13 12 13 10 10 11 12 12 13 14 15 14 13 12 12 12 11 15 15 22 23 26
33 30 30 29 30 28 28 22 19 19 20 21 22 24 26 20 22 22 23 20 19 17 16 16 15 15 14 14 15 14 14 13 14 13 12 14 12 10 10 11 15 16 20 23 24
33 33 32 31 29 29 28 26 24 21 20 20 23 25 24 20 21 21 22 21 19 18 16 15 17 16 17 17 16 14 16 14 14 10 9 12 10 10 11 13 14 14 18 19 20
34 33 31 31 32 32 30 29 27 24 22 21 22 29 22 22 22 20 20 20 20 18 16 16 18 16 19 16 18 15 13 10 9 10 11 10 12 8 9 10 12 14 14 17 19
33 33 34 34 34 31 28 27 26 26 24 24 27 27 20 21 21 20 21 20 20 20 20 17 16 14 18 20 16 12 13 13 12 8 9 10 12 9 9 8 10 12 12 13 16
33 35 34 31 31 29 28 26 22 23 22 22 21 20 20 20 21 21 20 22 20 18 17 15 15 15 12 16 21 19 18 16 16 12 12 15 15 11 10 10 9 9 11 12 13
32 32 34 29 28 27 26 28 30 26 22 22 18 19 18 19 20 16 17 19 18 16 15 11 18 18 16 16 15 14 15 16 14 12 14 16 15 12 9 9 10 11 13 14 14
31 32 32 29 26 27 28 40 34 38 21 19 18 18 18 19 17 16 17 16 15 15 11 12 20 16 14 13 14 13 15 18 16 14 17 17 16 12 10 12 12 12 15 17 18
28 31 32 31 30 32 44 24 25 24 33 19 20 18 19 20 17 17 17 17 15 13 13 14 19 14 14 15 18 15 22 23 23 19 15 15 13 12 12 13 14 16 18 18 19
20 27 29 31 28 43 43 17 18 24 37 19 18 20 18 17 18 20 17 19 17 17 14 16 15 15 16 16 19 22 19 23 25 26 28 18 22 12 12 14 14 15 18 19 21
28 20 26 27 45 36 37 24 28 37 66 22 17 19 18 17 16 18 19 19 18 16 16 24 18 15 17 20 19 24 22 26 23 26 25 20 20 14 12 13 14 15 17 20 22
27 23 28 33 33 38 29 26 35 76 65 24 17 18 18 18 18 17 18 19 18 16 14 13 15 16 18 18 19 21 24 23 21 26 46 24 25 21 15 14 13 14 16 20 22
28 29 25 29 52 32 29 36 54 63 24 23 22 18 19 20 19 18 19 24 27 34 29 19 18 17 21 24 20 25 31 54 70 62 54 22 26 24 17 13 14 16 18 21 24
34 29 34 25 25 33 31 47 57 30 25 21 20 20 23 22 22 20 21 23 25 28 28 32 37 22 22 26 32 30 33 60 69 60 54 30 31 18 12 13 14 17 20 22 24
45 53 38 38 26 26 51 69 47 27 23 23 21 23 25 23 22 22 26 27 29 30 39 44 34 22 24 24 28 31 41 32 50 85 68 45 28 19 15 14 17 19 20 25 26
59 53 33 34 28 47 66 48 28 24 22 22 28 24 27 26 25 25 28 27 30 30 31 35 52 31 26 27 27 31 29 50 61 88 65 38 38 32 23 25 25 24 24 27 28
60 49 32 26 38 48 65 36 25 25 26 29 28 27 28 30 30 29 30 30 29 30 30 36 46 46 37 32 35 32 39 42 37 50 70 74 44 28 30 28 28 25 28 31 29
48 50 32 34 48 40 36 27 26 27 28 28 28 30 34 33 37 33 34 35 34 33 38 42 50 69 50 31 24 28 34 34 72 66 60 70 60 30 26 24 26 26 26 29 32
40 43 40 49 76 87 32 31 30 27 31 30 34 34 32 36 48 39 37 39 37 33 46 43 57 68 43 34 31 38 32 33 41 75 76 96 64 28 29 28 25 26 31 34 34
43 83 50 48 38 35 35 35 39 39 35 34 34 34 35 39 35 44 37 36 42 40 45 44 50 62 73 57 43 51 41 38 42 64 57 57 47 33 28 27 26 29 36 37 37
41 43 43 67 46 38 35 33 37 42 38 35 36 36 38 65 53 42 36 36 35 40 40 46 72 54 50 46 47 50 48 42 42 41 53 45 38 30 27 27 30 37 42 44 44
58 47 40 38 37 35 41 35 35 35 33 36 39 34 36 44 45 50 42 45 46 38 44 51 86 76 82 58 51 54 52 47 42 38 37 38 38 27 25 29 36 43 46 50 62
53 38 51 54 45 55 44 34 32 33 42 36 37 40 69 47 47 47 49 48 47 50 57 59 91 100 86 64 75 88 60 48 42 35 36 49 38 28 30 39 45 52 53 68 74

GFSSW_850_rhum_003.txt.gz
RH
32 33 33 33 30 26 22 22 24 26 19 15 14 18 19 21 19 16 14 12 8 12 16 18 13 8 8 8 6 6 13 14 11 9 9 6 8 9 8 10 11 15 41 30 32
37 37 36 33 31 26 24 22 24 25 16 14 17 20 22 23 20 14 12 11 9 14 15 16 15 12 9 7 8 11 15 10 11 11 10 9 8 8 8 8 13 18 39 51 54
39 38 37 34 29 26 23 23 25 23 14 14 18 19 21 24 25 17 10 10 10 14 14 14 12 12 8 9 10 10 14 13 14 11 10 11 12 10 9 11 15 17 25 36 45
39 37 34 29 26 24 23 24 26 23 14 16 17 20 24 27 24 19 12 13 17 17 16 14 14 12 11 11 10 14 12 13 12 13 13 14 13 13 11 12 12 14 23 26 28
36 33 30 27 26 26 26 27 25 23 17 14 16 18 26 24 21 20 21 20 19 18 17 16 15 15 15 13 14 14 13 13 14 14 14 13 13 14 12 11 13 13 18 23 26
34 32 30 30 29 28 25 22 22 24 20 16 19 22 24 28 21 21 21 20 19 17 15 16 17 17 17 16 18 15 15 15 14 14 14 15 16 14 11 10 14 14 18 21 23
34 33 32 29 27 22 18 19 19 20 20 21 24 25 30 19 20 21 22 20 20 18 17 16 17 17 17 19 16 16 18 19 15 14 11 11 14 14 10 12 14 14 16 18 20
33 32 30 29 27 25 23 24 23 22 21 23 22 28 21 21 22 20 20 20 20 19 16 15 16 18 17 17 17 19 19 22 18 15 13 12 17 12 10 13 14 14 14 16 18
34 32 31 30 29 28 28 26 25 23 22 20 24 27 21 21 21 20 21 20 21 20 19 19 17 16 17 25 30 21 24 20 18 12 12 12 17 15 12 12 12 13 14 14 16
35 34 32 30 29 27 26 25 22 20 21 22 20 30 20 20 18 20 17 19 20 20 18 18 18 23 24 28 31 24 23 20 21 14 15 19 21 18 12 12 14 14 14 15 16
34 33 31 29 27 27 25 27 25 25 25 19 19 18 18 19 18 17 14 17 19 19 22 11 28 27 20 20 17 20 20 22 22 19 23 24 24 20 14 13 14 15 16 16 18
31 32 29 27 26 26 29 45 44 42 29 18 18 18 18 18 18 17 13 17 16 22 14 21 29 18 16 18 20 21 25 31 23 22 24 26 24 21 16 15 14 16 18 18 19
29 30 31 28 29 32 34 25 31 24 46 18 18 18 18 18 18 18 14 18 19 19 19 20 20 15 17 22 24 24 30 32 32 30 27 24 27 18 17 15 17 17 17 18 20
24 28 30 31 27 36 44 17 19 27 68 22 22 20 18 17 19 18 18 19 23 20 17 19 16 17 20 23 24 28 28 29 33 39 42 26 41 20 20 20 20 17 20 22 23
21 24 28 29 43 37 39 21 23 28 78 22 18 17 18 17 16 18 19 18 20 20 19 24 18 18 25 24 22 29 27 32 35 40 35 32 35 22 21 22 22 24 22 23 24
26 25 27 27 31 38 34 19 27 90 74 25 17 19 20 18 17 17 21 22 21 24 19 18 17 20 21 24 26 27 35 38 42 40 60 37 37 36 23 19 21 24 24 24 24
28 30 25 33 40 29 24 28 84 81 25 25 24 20 20 24 22 19 27 36 43 51 48 32 24 22 24 30 31 35 49 79 72 74 72 34 38 36 26 21 24 26 22 21 23
35 34 34 22 36 30 29 78 56 38 29 20 22 21 28 24 23 24 31 38 37 39 48 52 57 32 28 32 36 41 39 83 77 85 75 42 45 31 23 18 17 18 22 26 27
48 42 28 30 28 28 51 90 71 35 27 30 23 27 29 28 23 27 37 39 38 39 53 66 50 35 26 26 31 41 61 37 56 87 83 65 43 26 25 28 26 27 27 29 32
54 60 27 30 26 49 82 55 34 26 25 28 34 29 39 33 36 32 38 35 37 36 34 46 64 44 38 33 33 35 35 65 81 91 87 58 51 48 39 35 33 32 30 32 33
57 56 29 28 34 52 86 42 28 23 26 35 38 38 38 40 40 39 40 42 36 39 36 50 60 63 49 43 47 42 55 48 50 70 93 98 74 36 36 38 39 28 33 33 34
54 67 31 43 61 66 63 32 26 26 27 29 35 41 41 43 45 45 48 45 35 35 55 48 58 82 56 40 36 33 46 44 84 90 82 90 74 36 40 34 28 36 38 38 40
48 47 38 46 83 96 34 36 39 37 35 37 38 37 34 41 50 49 41 39 35 44 51 47 71 88 66 51 51 52 45 49 59 78 75 92 73 37 35 35 35 39 42 43 46
48 83 43 45 45 44 41 41 43 38 35 34 36 35 42 48 49 47 45 44 39 41 44 44 61 71 87 69 60 67 56 52 60 86 71 70 56 40 35 35 40 45 48 48 51
44 46 46 84 61 46 46 39 46 51 37 34 38 37 43 61 54 48 50 50 45 43 43 53 75 68 65 59 56 58 56 55 59 58 70 58 51 41 37 39 45 52 56 55 65
52 57 46 42 38 48 48 48 43 38 39 45 42 48 49 58 56 67 63 63 58 49 62 59 81 75 84 68 66 68 66 58 56 57 54 49 48 37 31 52 56 61 61 68 72
48 44 51 61 57 71 68 40 44 39 42 36 40 48 60 55 51 52 53 53 55 65 70 70 85 97 83 78 82 85 61 57 52 44 50 68 55 60 62 60 62 66 69 74 74

GFSSW_850_rhum_006.txt.gz
RH
29 27 26 27 27 25 25 21 24 26 17 15 18 21 23 18 13 10 7 9 10 14 15 15 12 14 12 10 8 7 15 16 14 11 10 9 11 9 10 10 14 29 24 29 43
33 32 32 31 29 26 22 22 25 21 16 17 20 22 23 21 13 10 8 11 13 15 15 16 15 13 9 9 9 11 17 13 12 11 11 12 12 9 8 15 31 41 30 35 40
38 36 35 32 28 24 22 23 27 19 16 18 20 20 24 25 15 12 9 13 17 18 18 17 15 14 10 10 10 12 18 14 14 12 12 15 14 11 11 14 16 41 40 38 40
37 36 33 29 25 22 23 26 26 18 16 18 19 23 25 22 22 17 21 20 19 18 17 16 16 15 13 13 12 15 14 14 14 12 13 15 13 14 13 12 14 21 28 45 45
35 31 28 26 24 23 26 28 26 16 16 17 17 22 26 22 21 20 20 20 19 16 16 17 17 18 22 17 15 15 14 14 14 14 13 14 13 14 13 12 14 16 32 37 39
32 30 27 27 29 29 28 28 25 18 14 14 21 26 28 23 21 22 21 19 18 16 17 16 18 18 18 17 18 17 16 16 15 15 15 16 16 15 13 11 14 15 21 24 26
32 31 32 30 27 24 22 21 21 20 20 23 24 27 25 20 21 21 21 21 18 20 16 13 16 17 18 22 18 16 19 20 18 16 15 12 13 15 10 11 12 15 14 15 17
34 33 32 29 25 22 21 19 19 20 21 23 22 26 20 22 22 20 21 21 19 21 20 19 18 17 18 18 22 22 21 24 19 18 13 12 18 12 12 12 12 15 15 16 17
35 34 32 30 28 27 25 22 20 20 22 22 26 29 23 21 20 20 21 17 18 19 19 19 20 18 17 26 28 26 25 22 21 14 14 14 17 16 15 14 13 15 16 15 17
36 33 29 28 27 26 25 25 24 22 22 24 25 27 21 20 18 17 16 14 18 20 20 18 20 27 26 28 31 26 24 22 22 20 25 22 24 22 15 15 14 14 16 16 18
34 31 29 28 27 26 30 37 29 25 22 19 19 19 18 19 19 17 14 16 17 18 25 17 28 26 20 20 21 21 24 29 25 22 29 30 32 27 17 18 19 18 18 21 22
32 30 28 27 25 26 37 44 43 39 27 19 18 16 17 18 18 17 13 17 19 21 17 27 27 18 18 22 22 24 29 33 31 26 30 32 33 24 18 19 18 18 19 20 22
30 30 28 27 28 28 36 26 35 29 43 18 19 19 17 18 18 19 17 18 21 22 20 26 20 16 20 26 27 26 30 32 35 35 32 31 31 22 18 21 21 20 19 19 19
27 28 30 30 28 38 44 23 28 27 56 23 22 20 18 18 20 18 18 21 20 21 19 21 17 18 26 24 26 32 24 31 36 41 46 32 50 27 21 21 21 21 20 20 22
22 27 29 28 46 35 34 22 24 32 72 24 18 17 18 17 17 18 21 19 20 21 22 23 17 21 26 24 26 31 30 39 38 46 42 40 42 30 21 21 23 28 25 25 25
21 25 27 28 38 38 36 20 27 84 69 25 18 19 21 20 18 21 26 22 26 32 29 21 18 21 22 25 28 32 38 44 47 48 63 40 39 38 32 24 32 30 25 24 26
29 27 29 28 28 30 25 28 78 70 30 27 25 20 25 24 24 28 37 41 46 42 51 41 29 24 26 35 35 41 56 79 69 77 71 44 47 36 28 28 27 27 26 25 26
34 33 22 36 36 27 29 71 56 48 32 22 22 21 28 24 23 34 35 44 41 45 58 64 61 40 29 32 36 41 53 82 77 84 75 50 45 37 26 24 23 23 26 28 32
36 27 33 23 32 30 46 80 63 43 30 30 28 30 32 29 24 36 42 44 42 45 55 72 56 40 33 32 33 41 59 43 63 91 86 69 49 33 30 38 31 30 30 34 34
50 35 31 24 31 49 73 53 33 27 30 35 37 35 40 41 39 38 42 44 41 41 42 51 68 48 45 38 36 35 38 64 82 84 94 71 63 52 40 43 40 41 35 39 38
58 41 29 29 41 46 72 49 27 26 28 35 42 46 43 45 47 44 51 44 39 41 43 51 60 60 49 49 51 49 65 56 59 81 96 98 84 48 46 45 45 42 41 42 44
55 45 33 44 48 76 52 31 27 28 30 35 40 44 45 45 51 50 51 46 37 41 54 51 68 81 57 48 42 42 53 61 88 82 88 92 72 37 46 37 39 43 45 48 48
46 44 43 46 72 86 39 38 40 38 40 41 40 39 39 47 52 50 46 39 36 43 47 46 69 83 59 48 55 58 51 56 67 82 85 93 79 37 36 40 45 50 54 53 55
41 80 38 41 55 48 41 42 43 38 39 37 37 38 46 54 49 44 52 47 42 43 43 45 66 67 78 60 67 73 59 55 64 93 79 75 66 50 44 50 54 59 60 60 62
46 45 54 77 61 47 49 46 48 49 37 36 45 49 46 57 55 64 62 60 50 47 47 57 74 68 69 64 64 66 66 66 74 69 86 69 64 53 61 58 60 63 66 66 69
47 51 45 55 50 46 61 44 43 41 43 45 54 56 58 61 58 66 62 63 66 56 60 66 84 78 80 72 76 82 71 70 70 66 65 64 59 67 72 71 71 71 71 74 74
46 49 44 67 60 68 69 43 43 43 43 40 43 52 61 58 55 54 55 55 54 66 75 73 87 97 74 91 94 94 75 67 57 55 58 76 64 72 82 79 77 77 68 71 73

GFSSW_850_rhum_009.txt.gz
RH
30 28 27 26 24 24 23 22 23 26 16 17 21 24 22 13 11 9 10 11 12 17 18 16 14 12 9 11 9 8 17 19 13 12 11 11 11 11 11 19 16 30 26 35 61
35 33 31 28 27 25 23 23 26 21 16 20 23 22 23 15 10 9 11 19 20 19 17 16 12 9 9 10 10 14 20 15 12 11 12 13 11 9 11 28 38 30 24 36 57
38 35 33 30 28 25 22 24 23 17 17 21 21 25 25 20 10 18 21 20 18 16 17 17 13 11 11 11 11 14 20 14 15 12 13 15 14 12 12 19 34 28 28 38 57
37 35 34 30 26 22 24 24 23 17 20 20 20 24 24 20 12 21 20 20 18 16 16 17 15 16 18 20 13 16 15 15 14 13 15 16 13 14 14 12 13 18 23 32 40
35 32 29 26 24 24 24 26 20 19 18 17 20 25 20 20 21 21 20 19 18 15 16 17 17 19 23 18 16 15 14 15 14 14 14 14 14 14 13 12 14 21 31 33 33
32 29 26 25 25 26 26 26 23 17 15 18 25 27 22 21 21 21 21 19 18 12 13 16 17 18 19 21 19 18 18 17 16 15 16 17 16 16 13 12 13 20 32 32 34
31 31 31 30 28 26 26 25 21 16 20 24 26 23 21 21 21 21 21 21 17 19 19 20 19 17 18 21 19 18 21 22 19 18 18 16 15 16 12 12 13 17 29 36 35
34 32 29 25 25 25 24 22 21 22 23 23 26 24 21 21 21 21 21 20 18 19 20 20 20 18 18 19 23 22 22 25 18 20 15 13 20 14 13 16 13 15 26 26 22
34 33 30 30 30 27 24 21 21 21 22 22 24 25 22 21 20 18 17 15 15 18 19 18 19 19 18 22 27 28 26 22 21 20 22 15 19 14 14 18 15 13 17 18 17
34 32 30 30 28 27 25 22 21 22 24 24 24 22 21 20 19 18 15 15 18 18 17 18 20 26 28 30 33 27 25 26 25 23 31 29 26 25 21 17 15 17 18 18 19
34 31 29 28 27 33 33 27 24 23 19 19 20 19 18 19 19 18 13 15 16 16 24 21 29 26 21 21 22 21 26 32 28 24 33 34 39 33 25 20 19 19 18 20 20
32 30 28 27 27 34 34 36 38 34 23 20 18 17 18 18 18 18 15 17 18 23 19 30 26 19 22 24 23 25 29 32 33 29 35 36 36 24 21 21 24 22 25 21 21
31 29 27 26 28 23 27 32 27 31 30 18 18 20 19 18 18 19 19 20 22 22 23 30 21 18 22 28 29 28 30 31 35 37 33 37 34 24 21 23 23 24 24 25 23
29 29 27 26 26 26 23 25 28 31 48 29 21 19 18 18 19 19 20 20 20 21 21 23 17 22 27 26 28 34 25 31 38 42 47 37 44 31 22 22 23 26 24 24 23
26 27 28 24 26 38 24 24 25 38 62 25 19 18 19 18 18 23 25 20 25 28 23 24 19 26 28 27 28 36 37 41 40 46 45 41 44 37 29 22 25 30 26 24 23
23 27 28 26 35 38 33 21 30 79 62 25 19 20 21 21 22 26 28 25 28 35 34 34 21 23 25 27 32 34 42 48 50 52 62 43 44 42 37 32 32 30 25 26 27
25 25 27 26 35 29 32 26 73 68 33 27 25 22 26 26 31 33 40 46 51 35 54 48 39 34 29 36 37 44 59 74 63 75 71 49 45 41 30 30 30 30 27 26 26
32 24 26 29 36 29 27 64 52 47 34 26 25 24 28 27 34 41 40 51 45 49 66 67 55 44 36 34 38 42 54 80 67 85 78 54 50 39 28 25 25 24 25 28 32
31 33 27 33 34 30 46 76 59 48 31 30 30 33 39 36 32 38 47 50 48 47 53 78 57 44 38 40 36 43 63 49 74 94 89 72 53 38 37 45 33 30 35 40 44
38 30 29 30 32 50 68 54 34 29 31 36 37 39 40 46 42 43 46 44 44 50 44 56 73 50 47 39 40 41 42 67 85 85 90 77 73 58 44 51 43 49 46 46 46
56 28 36 37 45 39 71 54 28 28 30 38 41 45 46 45 47 50 50 43 40 42 44 49 61 55 46 50 53 57 68 62 66 83 95 98 83 56 52 53 50 51 49 49 49
54 44 42 44 49 69 52 32 32 38 34 38 42 43 46 46 55 51 51 44 38 42 49 53 69 80 53 49 49 46 62 64 87 81 89 94 74 42 42 48 50 54 56 53 53
40 42 45 44 74 81 42 45 43 39 43 41 41 41 48 52 55 49 48 43 39 44 47 48 71 79 53 46 46 57 56 63 74 84 87 93 76 45 41 46 56 59 59 60 59
39 73 39 43 52 47 45 44 44 40 40 39 43 43 48 56 53 51 59 55 47 46 46 46 67 64 79 53 61 69 66 62 68 92 83 78 65 54 54 59 60 62 63 64 65
40 48 55 76 62 52 50 46 47 46 38 41 53 57 48 60 57 69 63 61 52 51 52 59 71 68 70 66 67 68 72 70 79 77 90 74 74 60 61 70 67 67 68 68 65
44 48 48 62 57 44 63 44 50 46 44 48 59 55 54 62 56 63 62 62 63 57 62 71 83 77 81 75 79 84 76 78 77 80 80 77 71 50 66 71 75 71 72 75 67
50 50 37 76 60 68 71 45 46 46 46 42 49 57 58 59 53 52 53 53 53 64 72 73 90 98 83 93 96 78 75 75 68 58 59 75 63 66 76 73 73 73 73 71 66